| time (UTC) | temp C | wind direction | speed KPH | gust KPH | rain 1hr cm | rain 24hr cm | rain mn cm | humidity % | barometer mb |
| 20260509184618 | 15 | 0 | 0.0 | 3.2 | 0.00 | 1.30 | 0.94 | 100 | 1008.2 |
| 20260509183053 | 13 | 0 | 0.0 | 1.6 | 0.00 | 1.30 | 0.94 | 100 | 1008.5 |
| 20260509181549 | 13 | 0 | 0.0 | 8.0 | 0.00 | 1.30 | 0.94 | 100 | 1008.5 |
| 20260509180045 | 12 | 0 | 0.0 | 3.2 | 0.00 | 1.30 | 0.94 | 100 | 1008.6 |
| 20260509174540 | 12 | 0 | 0.0 | 1.6 | 0.00 | 1.30 | 0.94 | 100 | 1008.6 |
| 20260509173047 | 12 | 0 | 0.0 | 4.8 | 0.00 | 1.30 | 0.94 | 100 | 1008.5 |
| 20260509171539 | 11 | 0 | 0.0 | 3.2 | 0.00 | 1.30 | 0.94 | 100 | 1008.6 |
| 20260509170048 | 11 | 0 | 0.0 | 3.2 | 0.00 | 1.30 | 0.94 | 100 | 1008.6 |
| 20260509164544 | 11 | 0 | 0.0 | 1.6 | 0.00 | 1.37 | 0.94 | 100 | 1008.5 |
| 20260509163058 | 11 | 0 | 0.0 | 8.0 | 0.00 | 1.37 | 0.94 | 100 | 1008.5 |
| 20260509161539 | 11 | 0 | 0.0 | 1.6 | 0.00 | 1.37 | 0.94 | 100 | 1008.4 |
| 20260509160048 | 11 | 0 | 0.0 | 6.4 | 0.00 | 1.37 | 0.94 | 100 | 1008.3 |
| 20260509154549 | 10 | 0 | 0.0 | 1.6 | 0.00 | 1.37 | 0.94 | 100 | 1008.3 |
| 20260509153045 | 10 | 0 | 0.0 | 11.3 | 0.00 | 1.37 | 0.94 | 100 | 1008.2 |
| 20260509151547 | 10 | 0 | 0.0 | 6.4 | 0.00 | 1.37 | 0.94 | 100 | 1008.2 |
| 20260509150045 | 10 | 0 | 0.0 | 6.4 | 0.03 | 1.37 | 0.94 | 100 | 1008.3 |
| 20260509144550 | 10 | 0 | 0.0 | 4.8 | 0.05 | 1.37 | 0.94 | 100 | 1008.3 |
| 20260509143047 | 10 | 0 | 0.0 | 1.6 | 0.05 | 1.37 | 0.94 | 100 | 1008.3 |
| 20260509141559 | 10 | 0 | 0.0 | 4.8 | 0.08 | 1.37 | 0.94 | 100 | 1008.3 |
| 20260509140057 | 10 | 0 | 0.0 | 1.6 | 0.08 | 1.32 | 0.91 | 100 | 1008.3 |
| 20260509134544 | 10 | 0 | 0.0 | 3.2 | 0.08 | 1.32 | 0.89 | 100 | 1008.5 |
| 20260509133045 | 9 | 0 | 0.0 | 8.0 | 0.10 | 1.32 | 0.89 | 100 | 1008.4 |
| 20260509131543 | 9 | 0 | 0.0 | 6.4 | 0.10 | 1.30 | 0.86 | 100 | 1008.5 |
| 20260509130047 | 9 | 0 | 0.0 | 1.6 | 0.10 | 1.27 | 0.84 | 100 | 1008.5 |
| 20260509124541 | 9 | 0 | 0.0 | 0.0 | 0.13 | 1.24 | 0.81 | 100 | 1008.8 |
| 20260509123054 | 9 | 0 | 0.0 | 14.5 | 0.13 | 1.22 | 0.79 | 100 | 1008.9 |
| 20260509121547 | 8 | 0 | 0.0 | 1.6 | 0.13 | 1.19 | 0.76 | 100 | 1008.9 |
| 20260509120041 | 8 | 0 | 0.0 | 1.6 | 0.13 | 1.17 | 0.74 | 100 | 1008.9 |
| 20260509114541 | 8 | 0 | 0.0 | 11.3 | 0.10 | 1.12 | 0.69 | 100 | 1008.8 |
| 20260509113045 | 8 | 0 | 0.0 | 0.0 | 0.13 | 1.09 | 0.66 | 100 | 1008.7 |
| 20260509111546 | 8 | 0 | 0.0 | 0.0 | 0.13 | 1.07 | 0.64 | 100 | 1008.7 |
| 20260509110038 | 8 | 0 | 0.0 | 0.0 | 0.13 | 1.04 | 0.61 | 100 | 1008.7 |
| 20260509104544 | 8 | 0 | 0.0 | 0.0 | 0.15 | 1.02 | 0.58 | 100 | 1008.7 |
| 20260509103049 | 8 | 0 | 0.0 | 1.6 | 0.13 | 0.97 | 0.53 | 100 | 1008.9 |
| 20260509101546 | 8 | 0 | 0.0 | 0.0 | 0.13 | 0.94 | 0.51 | 100 | 1009.0 |
| 20260509100053 | 8 | 0 | 0.0 | 0.0 | 0.13 | 0.91 | 0.48 | 100 | 1009.0 |
| 20260509094544 | 8 | 0 | 0.0 | 3.2 | 0.10 | 0.91 | 0.43 | 100 | 1009.1 |
| 20260509093046 | 8 | 0 | 0.0 | 0.0 | 0.13 | 0.89 | 0.41 | 100 | 1009.3 |
| 20260509091551 | 8 | 0 | 0.0 | 0.0 | 0.10 | 0.86 | 0.38 | 100 | 1009.5 |
| 20260509090041 | 8 | 0 | 0.0 | 3.2 | 0.10 | 0.84 | 0.36 | 100 | 1009.3 |
| 20260509084548 | 8 | 0 | 0.0 | 0.0 | 0.08 | 0.81 | 0.33 | 100 | 1009.5 |
| 20260509083048 | 8 | 0 | 0.0 | 0.0 | 0.05 | 0.76 | 0.28 | 100 | 1009.5 |
| 20260509081557 | 8 | 0 | 0.0 | 0.0 | 0.05 | 0.76 | 0.28 | 100 | 1009.4 |
| 20260509080050 | 8 | 0 | 0.0 | 0.0 | 0.03 | 0.74 | 0.25 | 100 | 1009.5 |
| 20260509074543 | 8 | 0 | 0.0 | 0.0 | 0.00 | 0.71 | 0.23 | 100 | 1009.3 |
| 20260509073046 | 7 | 0 | 0.0 | 0.0 | 0.03 | 0.71 | 0.23 | 100 | 1009.2 |
| 20260509071538 | 7 | 0 | 0.0 | 0.0 | 0.05 | 0.71 | 0.23 | 100 | 1009.2 |
| 20260509070047 | 8 | 0 | 0.0 | 0.0 | 0.05 | 0.71 | 0.23 | 100 | 1009.4 |
| 20260509064544 | 8 | 0 | 0.0 | 0.0 | 0.08 | 0.71 | 0.23 | 100 | 1009.7 |
| 20260509063045 | 7 | 0 | 0.0 | 0.0 | 0.08 | 0.69 | 0.20 | 100 | 1009.9 |
| 20260509061556 | 7 | 0 | 0.0 | 0.0 | 0.05 | 0.66 | 0.18 | 100 | 1010.0 |
| 20260509060042 | 7 | 0 | 0.0 | 0.0 | 0.08 | 0.66 | 0.18 | 100 | 1010.4 |
| 20260509054550 | 7 | 0 | 0.0 | 0.0 | 0.08 | 0.64 | 0.15 | 100 | 1010.6 |
| 20260509053057 | 7 | 0 | 0.0 | 0.0 | 0.08 | 0.61 | 0.13 | 100 | 1010.6 |
| 20260509051549 | 8 | 0 | 0.0 | 0.0 | 0.10 | 0.61 | 0.13 | 100 | 1011.0 |
| 20260509050049 | 8 | 0 | 0.0 | 0.0 | 0.10 | 0.58 | 0.10 | 100 | 1011.3 |
| 20260509044547 | 8 | 0 | 0.0 | 0.0 | 0.10 | 0.56 | 0.08 | 100 | 1011.5 |
| 20260509043046 | 8 | 0 | 0.0 | 0.0 | 0.08 | 0.53 | 0.05 | 100 | 1011.5 |
| 20260509041546 | 8 | 0 | 0.0 | 0.0 | 0.08 | 0.51 | 0.03 | 100 | 1011.7 |
| 20260509040049 | 8 | 0 | 0.0 | 0.0 | 0.08 | 0.48 | 0.00 | 100 | 1011.8 |
| 20260509034550 | 8 | 0 | 0.0 | 0.0 | 0.08 | 0.46 | 0.46 | 100 | 1011.7 |
| 20260509033044 | 8 | 0 | 0.0 | 0.0 | 0.10 | 0.46 | 0.46 | 100 | 1012.0 |
| 20260509031544 | 8 | 0 | 0.0 | 0.0 | 0.08 | 0.43 | 0.43 | 100 | 1012.2 |
| 20260509030049 | 8 | 0 | 0.0 | 0.0 | 0.08 | 0.41 | 0.41 | 100 | 1012.4 |
| 20260509024545 | 8 | 0 | 0.0 | 0.0 | 0.08 | 0.38 | 0.38 | 100 | 1012.5 |
| 20260509023045 | 8 | 0 | 0.0 | 0.0 | 0.05 | 0.36 | 0.36 | 100 | 1012.2 |
| 20260509021545 | 8 | 0 | 0.0 | 0.0 | 0.08 | 0.36 | 0.36 | 100 | 1012.1 |
| 20260509020043 | 8 | 0 | 0.0 | 0.0 | 0.05 | 0.33 | 0.33 | 100 | 1012.0 |
| 20260509014543 | 8 | 0 | 0.0 | 0.0 | 0.03 | 0.30 | 0.30 | 100 | 1012.1 |
| 20260509013046 | 8 | 0 | 0.0 | 0.0 | 0.05 | 0.30 | 0.30 | 100 | 1011.9 |
| 20260509011546 | 8 | 0 | 0.0 | 0.0 | 0.05 | 0.28 | 0.28 | 100 | 1011.6 |
| 20260509010046 | 8 | 0 | 0.0 | 0.0 | 0.08 | 0.28 | 0.28 | 100 | 1011.6 |
| 20260509004548 | 8 | 0 | 0.0 | 0.0 | 0.05 | 0.25 | 0.25 | 100 | 1011.5 |
| 20260509003048 | 8 | 0 | 0.0 | 1.6 | 0.08 | 0.25 | 0.25 | 100 | 1011.7 |
| 20260509001538 | 9 | 0 | 0.0 | 0.0 | 0.08 | 0.23 | 0.23 | 100 | 1011.4 |
| 20260509000047 | 9 | 0 | 0.0 | 0.0 | 0.05 | 0.20 | 0.20 | 100 | 1011.1 |
| 20260508234547 | 9 | 0 | 0.0 | 0.0 | 0.05 | 0.20 | 0.20 | 100 | 1011.0 |
| 20260508233045 | 9 | 0 | 0.0 | 1.6 | 0.03 | 0.18 | 0.18 | 17 | 1010.9 |
| 20260508231618 | 10 | 0 | 0.0 | 0.0 | 0.00 | 0.15 | 0.15 | 40 | 1011.0 |
| 20260508230051 | 11 | 0 | 0.0 | 1.6 | 0.00 | 0.15 | 0.15 | 60 | 1011.2 |
| 20260508224538 | 11 | 229 | 0.0 | 4.8 | 0.00 | 0.15 | 0.15 | 65 | 1011.2 |
| 20260508223043 | 11 | 0 | 0.0 | 6.4 | 0.00 | 0.15 | 0.15 | 65 | 1011.1 |
| 20260508221543 | 11 | 0 | 0.0 | 4.8 | 0.00 | 0.15 | 0.15 | 63 | 1011.1 |
| 20260508220043 | 11 | 0 | 0.0 | 1.6 | 0.00 | 0.15 | 0.15 | 62 | 1011.1 |
| 20260508214554 | 11 | 0 | 0.0 | 6.4 | 0.00 | 0.15 | 0.15 | 63 | 1011.1 |
| 20260508213050 | 11 | 0 | 0.0 | 1.6 | 0.00 | 0.15 | 0.15 | 63 | 1011.1 |
| 20260508211542 | 12 | 0 | 0.0 | 0.0 | 0.00 | 0.15 | 0.15 | 64 | 1010.9 |
| 20260508210041 | 12 | 0 | 0.0 | 9.7 | 0.00 | 0.15 | 0.15 | 65 | 1011.0 |
| 20260508204545 | 12 | 0 | 0.0 | 0.0 | 0.03 | 0.15 | 0.15 | 57 | 1011.0 |
| 20260508203051 | 12 | 0 | 0.0 | 0.0 | 0.03 | 0.15 | 0.15 | 57 | 1011.0 |
| 20260508201541 | 11 | 0 | 0.0 | 0.0 | 0.03 | 0.15 | 0.15 | 49 | 1011.4 |
| 20260508200049 | 11 | 0 | 0.0 | 3.2 | 0.03 | 0.15 | 0.15 | 52 | 1011.4 |
| 20260508194553 | 11 | 0 | 0.0 | 4.8 | 0.00 | 0.13 | 0.13 | 47 | 1011.4 |
| 20260508193056 | 11 | 0 | 0.0 | 14.5 | 0.00 | 0.13 | 0.13 | 47 | 1011.6 |
| 20260508191544 | 11 | 0 | 0.0 | 4.8 | 0.00 | 0.13 | 0.13 | 63 | 1011.7 |
| 20260508190042 | 13 | 0 | 0.0 | 3.2 | 0.00 | 0.13 | 0.13 | 64 | 1011.5 |